LiveATC.Net - Listen to live air traffic control over the Internet!


ICAO: KBIS  IATA: BIS   Airport: Bismarck Municipal Airport
City: Bismarck   State/Province: North Dakota
Country: United States   Continent: North America
KBIS METAR Weather: KBIS 041452Z VRB03KT 10SM CLR 23/18 A2990 RMK AO2 SLP116 60002 T02280178 58055
KBIS Flight Activity (FlightAware)
KBIS Airport Info   (iFlightPlanner)
KBIS VFR Sectional Chart   (iFlightPlanner) 
KBIS IFR Low Chart   (iFlightPlanner) 

KBIS Twr/App
Feed Status: UP   Listeners: 0
Listen in your browser - HTML5 player (in browser, HTML5)
Click here to listen with your own player (launches your MP3 player)
Archive Access: KBIS Twr/App
FacilityFrequency
Bismarck Approach/Departure126.300
Bismarck Tower118.300

NOTICE

Unauthorized use prohibited. See LiveATC.net Terms of Service


Airport/ARTCC Code
Frequency Search
(e.g., 124.400, 128.75)
Site-wide search
 


Browse Feeds
Top 50 Feeds
Coverage Map
Bad Weather Areas

LiveATC FAQ
Offer LiveATC feed
Contact LiveATC.net
Press Inquiries

LiveATC on iPhone
LiveATC on Android

Windows Phone
Windows 8/10

LiveATC Mobile
(Mobile browser)

ATC Audio Archives
Interesting Recordings

LiveATC Forums


Home Page
About LiveATC.net
Make a Donation
Terms of Use
Privacy Policy

Canadian Air Freqs

AIRMETs/SIGMETs

FAA Airport Status
Nat'l Airspace Status
Arrival Demand Charts


Server Software By:
Icecast.org
Liquidsoap